LRTM Weather Reports


time (UTC)temp
F
wind
direction
speed
knots
gust
knots
rain 1hr
in
rain 24hr
in
rain mn
in
humidity
%
barometer
mb
20260503224826 39 80 2.6 0.0 0.00 0.00 0.00 75 1019.0
20260503223338 39 80 2.6 0.0 0.00 0.00 0.00 75 1019.0
20260503221843 41 80 2.6 0.0 0.00 0.00 0.00 70 1019.0
20260503220408 41 80 2.6 0.0 0.00 0.00 0.00 70 1019.0
20260503214833 43 70 1.7 0.0 0.00 0.00 0.00 76 1019.0
20260503213326 43 70 1.7 0.0 0.00 0.00 0.00 76 1019.0
20260503211827 43 20 0.9 0.0 0.00 0.00 0.00 71 1019.0
20260503210326 43 20 0.9 0.0 0.00 0.00 0.00 71 1019.0
20260503204833 45 0.9 0.0 0.00 0.00 0.00 66 1019.0
20260503203444 45 0.9 0.0 0.00 0.00 0.00 66 1019.0
20260503201826 45 250 2.6 0.0 0.00 0.00 0.00 66 1019.0
20260503200336 45 250 2.6 0.0 0.00 0.00 0.00 66 1019.0
20260503194852 48 0.9 0.0 0.00 0.00 0.00 62 1019.0
20260503193444 48 0.9 0.0 0.00 0.00 0.00 62 1019.0
20260503191826 50 240 0.9 0.0 0.00 0.00 0.00 54 1019.0
20260503190326 50 240 0.9 0.0 0.00 0.00 0.00 54 1019.0
20260503184943 52 210 1.7 0.0 0.00 0.00 0.00 50 1018.0
20260503183326 52 210 1.7 0.0 0.00 0.00 0.00 50 1018.0
20260503181826 54 260 5.2 0.0 0.00 0.00 0.00 51 1018.0
20260503180326 54 260 5.2 0.0 0.00 0.00 0.00 51 1018.0
20260503174846 55 250 6.1 0.0 0.00 0.00 0.00 47 1018.0
20260503173351 55 250 6.1 0.0 0.00 0.00 0.00 47 1018.0
20260503171826 59 250 6.1 0.0 0.00 0.00 0.00 45 1018.0
20260503170327 59 250 6.1 0.0 0.00 0.00 0.00 45 1018.0
20260503150326 64 310 4.3 0.0 0.00 0.00 0.00 30 1019.0
20260503130326 61 4.3 0.0 0.00 0.00 0.00 31 1020.0
20260503110347 59 4.3 0.0 0.00 0.00 0.00 34 1022.0
20260503090347 57 120 5.2 0.0 0.00 0.00 0.00 36 1023.0
20260503080337 54 2.6 0.0 0.00 0.00 0.00 47 1023.0
20260503071825 50 80 2.6 0.0 0.00 0.00 0.00 58 1023.0
20260503070327 50 80 2.6 0.0 0.00 0.00 0.00 58 1023.0
20260503060326 45 100 2.6 0.0 0.00 0.00 0.00 71 1023.0
20260503054826 41 100 4.3 0.0 0.00 0.00 0.00 81 1023.0
20260503053326 41 100 4.3 0.0 0.00 0.00 0.00 81 1023.0
20260503051826 37 80 4.3 0.0 0.00 0.00 0.00 87 1023.0
20260503050326 37 80 4.3 0.0 0.00 0.00 0.00 87 1023.0
20260503044826 36 80 5.2 0.0 0.00 0.00 0.00 87 1023.0
20260503043327 36 80 5.2 0.0 0.00 0.00 0.00 87 1023.0
20260503041826 34 1.7 0.0 0.00 0.00 0.00 87 1023.0
20260503040349 34 1.7 0.0 0.00 0.00 0.00 87 1023.0
20260503034828 32 90 5.2 0.0 0.00 0.00 0.00 87 1023.0
20260503033326 32 90 5.2 0.0 0.00 0.00 0.00 87 1023.0
20260503031826 32 50 2.6 0.0 0.00 0.00 0.00 93 1023.0
20260503030326 32 50 2.6 0.0 0.00 0.00 0.00 93 1023.0
20260503024841 32 100 2.6 0.0 0.00 0.00 0.00 87 1023.0
20260503023326 32 100 2.6 0.0 0.00 0.00 0.00 87 1023.0
20260503021826 30 60 0.9 0.0 0.00 0.00 0.00 93 1022.0
20260503020326 30 60 0.9 0.0 0.00 0.00 0.00 93 1022.0
20260503014826 34 340 1.7 0.0 0.00 0.00 0.00 87 1022.0
20260503013326 34 340 1.7 0.0 0.00 0.00 0.00 87 1022.0
20260503011826 30 100 5.2 0.0 0.00 0.00 0.00 93 1022.0
20260503010326 30 100 5.2 0.0 0.00 0.00 0.00 93 1022.0
20260503004826 34 1.7 0.0 0.00 0.00 0.00 87 1022.0
20260503003326 34 1.7 0.0 0.00 0.00 0.00 87 1022.0
20260503001826 36 1.7 0.0 0.00 0.00 0.00 81 1022.0
20260503000326 36 1.7 0.0 0.00 0.00 0.00 81 1022.0
20260502234826 37 0.9 0.0 0.00 0.00 0.00 81 1022.0
20260502233326 37 0.9 0.0 0.00 0.00 0.00 81 1022.0
20260502231826 39 230 0.9 0.0 0.00 0.00 0.00 75 1023.0
20260502230326 39 230 0.9 0.0 0.00 0.00 0.00 75 1023.0